User: anonymous   Login
Location: Hiekkapohja
(62.3333°N, 25.7833°E)
Time: 12:24:45
(UTC+00:00)
Language:

Cosmos 2219 Rocket - Orbit

View from above orbital plane
View from above orbital plane
View from above satellite
View from above satellite

Ground track
Ground track

The orbit data is extracted from the following two-line orbital elements,

1 22220U 92076B   20293.95470681 -.00000197 +00000-0 -74849-4 0  9993
2 22220 071.0024 009.5007 0014300 220.7978 311.7530 14.16459797443305
Epoch (UTC): 19 October 2020 22:54:46
Eccentricity: 0.0014300
inclination: 71.0024°
perigee height: 827 km
apogee height: 847 km
right ascension of ascending node: 9.5007°
argument of perigee: 220.7978°
revolutions per day: 14.16459797
mean anomaly at epoch: 311.7530°
orbit number at epoch: 44330

The dashed part of the orbit path shows where the satellite is in the earth's shadow,  

DLR